Wind_Speed
5 4 5 5 4 4 4 4 5 5 6 6 6 6 7 8 9 10 11 12 13 13 15 15 15 16 17 18 18 19 19 19 20 21 22 23 23 24
6 5 6 5 5 6 6 6 6 7 7 8 8 9 10 10 11 13 13 14 14 15 16 17 17 18 19 20 20 21 22 22 23 24 24 25 26 26
7 7 7 7 6 7 7 8 8 8 9 9 10 11 12 12 13 14 15 16 17 18 18 19 20 20 20 21 21 22 23 24 25 27 28 28 28 29
9 9 8 8 8 8 9 9 10 11 11 12 13 14 14 15 16 17 18 18 19 20 21 22 23 24 24 25 25 25 26 26 27 29 29 30 31 31
11 10 10 10 10 10 11 12 13 13 14 15 15 16 17 18 19 20 21 22 22 23 24 25 26 27 28 28 28 28 29 29 30 31 32 33 33 34
13 12 12 12 13 13 14 14 15 16 17 18 18 19 19 21 21 22 22 24 25 26 27 28 30 31 31 32 32 32 32 33 34 34 35 36 37 37
15 15 15 15 15 16 16 17 18 19 20 20 21 22 23 23 24 25 25 26 27 29 30 31 33 34 34 35 35 35 35 35 36 37 38 39 39 40
16 17 17 18 18 19 20 20 21 22 23 23 24 25 26 27 28 28 29 30 31 32 33 34 36 37 37 38 38 39 39 39 40 40 41 41 42 42
18 19 19 20 21 22 23 24 24 25 26 27 27 28 29 30 30 31 32 33 34 35 36 37 39 40 40 41 41 42 42 43 44 44 44 45 46 46
20 21 22 22 23 24 25 26 26 27 28 29 30 31 32 33 33 34 35 36 37 39 40 41 42 43 43 44 45 46 46 47 47 48 48 49 49 50
23 24 24 25 26 26 27 28 29 30 31 32 33 34 35 36 37 38 39 40 41 42 44 44 45 45 46 47 48 49 49 50 51 52 53 54 54 54
26 27 28 28 29 30 31 32 33 33 34 35 37 37 38 39 40 41 43 44 44 45 46 46 46 47 47 48 49 50 51 52 54 54 55 55 55 56
29 30 31 31 32 33 34 35 36 37 38 39 40 41 41 42 43 45 45 46 46 46 47 48 48 49 50 49 50 51 52 53 53 54 54 54 54 55
32 33 33 34 35 36 38 39 39 40 41 42 43 43 44 45 46 47 47 48 48 49 50 51 51 52 52 51 51 51 52 52 53 53 53 53 54 54
35 36 37 38 39 40 41 42 43 43 44 44 45 45 46 47 48 49 50 50 51 51 52 53 53 53 53 53 53 52 52 52 53 54 53 53 53 53
38 39 40 41 42 42 43 44 44 45 46 47 47 48 49 50 51 52 52 52 52 52 53 54 54 54 53 53 53 53 52 52 52 53 54 53 53 54
41 41 42 43 43 44 45 46 46 47 48 49 50 51 52 52 53 54 54 55 54 54 54 55 55 55 55 55 54 54 53 53 52 53 52 52 53 54
42 43 44 45 46 46 47 48 49 50 51 52 53 54 54 55 55 56 57 57 56 56 56 56 57 57 56 55 55 55 54 53 53 54 54 53 52 52
44 45 46 47 48 48 49 50 51 52 53 55 55 55 56 56 57 58 58 58 58 58 57 57 57 57 56 55 54 55 55 54 54 54 54 54 52 52
47 47 48 49 49 50 51 51 53 54 55 56 56 57 58 58 59 59 59 58 58 58 58 57 57 57 57 56 55 55 56 56 56 55 55 54 52 51
49 49 50 51 52 52 53 54 55 56 57 57 58 59 59 59 59 59 59 59 59 59 58 58 58 58 58 58 57 55 55 55 55 55 53 53 52 50
50 51 52 53 54 54 55 56 56 57 57 59 60 60 60 60 60 60 60 60 60 59 58 57 57 57 57 57 56 54 53 52 52 51 51 51 50 49
51 52 53 54 55 55 56 57 58 58 59 60 60 60 60 61 60 60 60 59 59 58 57 56 55 55 54 54 53 52 51 50 49 48 47 47 47 47
Wind_Direction
340 341 337 333 327 325 324 317 311 309 308 302 296 296 296 293 291 290 291 291 288 284 279 277 276 277 279 279 276 272 271 266 264 265 264 265 264 263
320 325 327 323 315 315 318 319 318 311 309 302 300 298 297 297 295 293 292 290 290 289 285 281 279 277 280 281 277 273 271 269 269 270 268 266 266 266
302 308 313 314 311 307 308 309 312 312 308 307 305 301 298 299 299 296 295 294 292 291 290 287 286 285 287 285 281 276 273 271 270 270 270 268 267 267
297 300 301 302 301 301 302 304 305 307 308 306 304 302 299 298 298 297 295 295 294 292 290 290 290 290 289 286 283 279 275 272 271 271 270 270 269 268
292 293 294 293 293 293 294 296 299 301 303 303 302 302 301 299 298 296 293 293 292 291 290 291 291 291 290 287 284 281 277 275 273 272 272 272 272 270
287 288 289 290 290 291 293 294 296 298 300 299 299 299 299 300 299 298 296 295 295 294 292 292 291 291 290 287 284 280 278 277 276 275 273 273 273 273
285 285 287 288 289 291 292 294 295 297 298 299 299 299 299 298 298 297 296 297 296 295 294 293 293 292 290 287 285 282 279 277 276 275 275 274 274 273
285 286 287 288 289 290 292 294 295 295 297 298 298 299 298 298 297 296 296 296 295 295 295 294 293 292 290 288 286 283 281 280 278 277 276 275 274 274
285 286 287 287 288 290 292 293 294 295 296 297 298 299 298 298 297 297 296 296 296 296 295 294 293 292 290 288 286 284 283 281 280 278 278 276 275 274
286 286 287 288 289 291 292 293 293 295 296 297 298 298 298 298 297 296 296 297 296 296 295 294 293 291 290 289 287 284 282 282 281 280 278 278 276 275
286 287 288 289 290 290 291 293 294 294 295 296 297 298 297 297 297 296 296 296 296 296 295 294 293 292 290 290 289 286 283 282 282 281 280 278 276 275
287 288 289 290 290 291 292 293 294 294 295 296 296 297 296 296 297 297 296 296 296 296 295 294 293 292 291 290 290 287 285 284 283 282 280 278 276 275
287 288 290 290 290 291 292 293 293 294 294 295 296 296 296 297 298 298 298 298 297 297 295 295 294 294 293 292 290 289 288 286 284 282 280 278 276 275
288 289 290 290 291 292 292 292 293 294 294 295 296 297 297 298 298 298 298 298 297 297 296 295 295 294 294 293 292 289 288 286 285 283 281 279 278 276
288 289 289 290 291 291 291 292 292 293 294 295 296 296 297 298 298 298 298 298 298 297 296 296 295 295 294 294 293 291 289 287 286 283 282 280 279 277
288 289 289 290 290 291 291 292 292 293 294 295 296 297 297 298 298 298 298 298 297 297 296 296 295 294 294 294 294 292 290 289 288 285 283 282 280 278
289 289 289 290 290 291 291 292 292 293 294 295 296 297 297 297 298 298 298 297 297 297 295 295 295 294 294 294 293 292 291 290 289 287 285 283 282 279
289 289 290 290 290 291 292 292 293 293 294 295 296 296 296 297 297 298 298 297 297 296 295 295 294 294 293 293 293 293 292 291 290 289 287 285 284 281
290 291 291 292 292 292 292 292 292 293 295 295 295 295 296 296 297 297 297 297 296 295 295 295 294 293 293 292 292 292 291 291 290 289 288 287 285 283
291 292 292 292 292 292 292 292 293 293 294 294 294 295 295 296 296 296 296 296 296 295 295 294 294 293 293 293 292 291 291 291 291 290 288 286 285 284
291 292 292 292 292 292 292 292 292 293 294 294 294 295 295 295 296 296 296 296 296 295 294 294 293 293 293 293 293 292 291 291 291 290 288 287 285 284
291 292 292 292 292 292 293 293 293 294 294 294 294 294 294 295 295 295 295 295 295 295 294 294 293 293 293 293 294 294 292 291 291 290 290 289 287 285
293 293 293 293 293 293 293 293 294 294 294 294 294 294 294 294 295 294 294 295 294 294 294 294 293 293 293 294 295 295 294 292 290 289 289 289 289 287
Height
5864 5863 5863 5862 5862 5861 5861 5861 5861 5860 5860 5859 5859 5859 5858 5858 5858 5858 5857 5857 5856 5856 5855 5855 5856 5855 5855 5855 5855 5855 5855 5855 5856 5857 5857 5857 5858 5858
5863 5863 5862 5861 5861 5861 5860 5860 5859 5859 5858 5857 5857 5856 5856 5855 5855 5855 5854 5853 5853 5852 5851 5851 5851 5851 5850 5850 5849 5849 5849 5850 5850 5850 5851 5851 5851 5851
5862 5862 5861 5860 5860 5859 5859 5858 5858 5857 5856 5855 5854 5853 5853 5852 5852 5851 5850 5849 5849 5848 5847 5846 5846 5845 5845 5844 5843 5843 5843 5843 5844 5844 5844 5844 5844 5844
5860 5860 5859 5859 5858 5857 5857 5856 5855 5855 5854 5853 5852 5851 5850 5849 5848 5847 5846 5845 5844 5843 5842 5841 5840 5839 5839 5838 5837 5836 5836 5836 5836 5836 5836 5836 5836 5836
5858 5858 5857 5856 5856 5855 5854 5854 5853 5852 5851 5850 5848 5847 5846 5844 5843 5842 5841 5840 5838 5837 5836 5835 5834 5832 5831 5830 5829 5828 5828 5827 5827 5827 5827 5827 5826 5826
5855 5854 5854 5853 5853 5852 5851 5850 5849 5848 5847 5846 5844 5843 5841 5840 5838 5837 5836 5834 5832 5831 5829 5827 5826 5825 5823 5822 5820 5819 5818 5818 5817 5817 5816 5816 5816 5816
5851 5851 5850 5849 5849 5848 5847 5846 5845 5843 5842 5841 5839 5837 5836 5834 5833 5831 5829 5828 5826 5824 5822 5819 5817 5816 5814 5812 5811 5809 5808 5807 5807 5806 5805 5805 5804 5804
5847 5846 5846 5845 5844 5843 5842 5841 5839 5838 5836 5835 5833 5831 5829 5827 5825 5823 5821 5820 5818 5816 5813 5810 5807 5805 5803 5801 5799 5798 5797 5796 5795 5794 5793 5792 5791 5791
5843 5842 5841 5840 5839 5838 5836 5835 5833 5831 5829 5828 5826 5824 5821 5819 5817 5815 5812 5810 5808 5805 5803 5800 5797 5794 5792 5789 5787 5785 5784 5782 5781 5780 5779 5778 5777 5776
5838 5837 5836 5834 5833 5831 5830 5828 5826 5824 5822 5820 5818 5816 5813 5810 5808 5805 5803 5800 5797 5794 5791 5789 5785 5782 5779 5776 5773 5771 5769 5767 5766 5765 5763 5762 5761 5760
5832 5830 5829 5828 5826 5824 5823 5821 5819 5816 5814 5811 5809 5806 5803 5800 5797 5795 5792 5789 5786 5783 5778 5775 5772 5769 5766 5762 5758 5755 5753 5751 5749 5747 5745 5744 5742 5741
5825 5824 5822 5820 5818 5816 5814 5812 5810 5808 5805 5802 5799 5796 5793 5789 5786 5783 5779 5776 5773 5770 5765 5761 5758 5754 5752 5749 5743 5739 5735 5732 5730 5728 5725 5723 5722 5721
5817 5816 5814 5812 5810 5807 5805 5803 5800 5798 5795 5792 5788 5785 5782 5778 5774 5770 5766 5762 5758 5755 5750 5746 5743 5739 5735 5733 5729 5724 5719 5715 5711 5708 5705 5703 5701 5700
5809 5807 5805 5802 5800 5798 5795 5792 5790 5787 5783 5780 5777 5774 5770 5766 5761 5757 5752 5748 5744 5739 5735 5730 5726 5722 5718 5715 5712 5708 5703 5698 5694 5690 5687 5685 5682 5680
5799 5797 5794 5792 5789 5787 5784 5781 5778 5775 5772 5768 5765 5761 5757 5753 5748 5743 5738 5734 5729 5724 5719 5714 5710 5706 5702 5698 5694 5691 5686 5682 5677 5673 5670 5667 5664 5662
5788 5785 5783 5780 5777 5775 5772 5769 5765 5762 5759 5755 5752 5748 5743 5739 5734 5729 5724 5719 5715 5710 5703 5698 5693 5689 5685 5681 5676 5672 5668 5664 5660 5655 5651 5649 5646 5643
5776 5774 5771 5768 5765 5762 5759 5756 5752 5749 5745 5741 5737 5733 5729 5724 5719 5713 5708 5703 5698 5694 5689 5682 5676 5672 5668 5664 5660 5655 5650 5646 5641 5636 5633 5631 5628 5625
5764 5761 5758 5755 5752 5749 5745 5742 5738 5734 5730 5726 5722 5718 5713 5708 5703 5698 5692 5687 5682 5677 5672 5666 5660 5656 5652 5648 5642 5637 5633 5627 5623 5618 5614 5612 5611 5607
5751 5748 5745 5741 5738 5734 5731 5727 5723 5719 5715 5710 5706 5701 5697 5692 5687 5681 5676 5670 5665 5660 5655 5649 5643 5637 5634 5632 5628 5620 5614 5610 5605 5601 5597 5593 5592 5590
5737 5733 5730 5727 5723 5719 5715 5711 5708 5703 5699 5694 5689 5685 5680 5674 5669 5664 5658 5653 5648 5642 5637 5632 5626 5620 5615 5612 5610 5606 5597 5591 5587 5583 5580 5576 5574 5572
5722 5718 5715 5711 5707 5703 5699 5695 5691 5686 5682 5677 5672 5667 5662 5657 5652 5646 5641 5636 5630 5625 5620 5615 5609 5602 5597 5593 5590 5588 5582 5574 5568 5564 5561 5558 5556 5555
5706 5703 5699 5695 5691 5687 5683 5678 5674 5669 5664 5659 5655 5649 5644 5639 5634 5628 5623 5618 5612 5607 5602 5597 5591 5585 5580 5575 5571 5568 5564 5559 5553 5547 5543 5539 5536 5536
5690 5686 5682 5678 5674 5670 5665 5661 5656 5652 5647 5642 5637 5631 5626 5621 5616 5610 5605 5599 5594 5589 5584 5579 5574 5569 5564 5559 5555 5551 5547 5542 5538 5534 5531 5525 5521 5518